Wind_Speed
3 2 2 3 3 4 5 6 6 8 11 13 14 15 15 15 14 13 12 11 9 8 7 6 5 5 7 9 10 10 11 11 11 11 12 13 14 16 18 20 21 23 25 27 28 29 30 29 26 22 19 17 15 14 14 14 15 17 20 22 24 26 28 31 34 36 37 38 38 37 35 31 28 26
3 3 2 3 3 3 4 5 6 8 11 13 15 16 16 16 15 14 12 11 10 9 8 7 7 7 7 9 11 11 12 12 12 12 12 13 14 15 17 19 21 23 25 26 27 28 30 30 27 24 21 18 16 15 14 15 16 18 20 22 24 26 28 31 34 36 37 37 38 36 34 31 28 26
3 3 3 3 3 3 4 5 7 9 12 14 15 16 16 16 16 15 13 12 11 10 10 9 8 8 8 9 10 12 13 13 13 12 12 12 13 15 16 19 21 22 24 25 26 27 28 29 27 25 22 19 17 16 15 15 17 18 20 22 24 27 29 31 34 36 37 37 37 36 34 32 30 27
4 4 5 4 4 4 5 6 7 9 11 13 15 16 16 16 17 16 15 14 13 12 11 10 9 9 10 10 10 12 13 14 14 14 13 12 13 14 17 19 20 22 24 24 25 26 27 27 26 25 23 21 20 18 17 17 18 19 21 23 25 27 29 31 34 36 37 37 37 36 35 33 31 29
7 6 6 6 6 5 6 6 7 9 11 13 15 16 17 17 17 17 16 15 14 13 12 12 11 10 10 11 11 12 13 13 14 14 14 14 14 15 17 19 20 21 23 23 23 24 25 26 26 24 23 23 22 20 19 19 19 20 21 23 25 27 29 31 34 36 37 37 36 35 35 34 33 31
9 8 8 9 8 7 7 8 8 9 10 12 14 16 17 18 18 18 17 17 16 15 14 13 12 11 11 12 12 13 13 13 13 14 15 15 15 16 17 18 19 21 22 22 23 24 24 25 25 24 23 23 23 22 22 21 21 21 22 23 25 27 29 31 34 36 36 36 35 34 34 34 34 32
11 10 10 11 11 10 9 9 9 10 11 12 14 16 17 18 19 19 19 18 17 16 16 16 15 13 13 14 14 14 14 14 14 14 15 16 16 16 17 18 19 21 22 22 22 23 24 24 24 24 23 24 24 25 25 24 23 22 22 23 25 26 28 30 33 35 36 35 34 33 34 34 34 32
12 12 12 13 13 12 11 11 11 12 12 13 14 15 17 18 19 20 20 20 19 18 17 17 17 16 16 16 16 16 16 16 15 15 16 17 18 18 18 18 20 21 21 22 23 24 24 24 24 24 23 24 25 26 27 27 25 24 23 23 24 26 28 30 32 35 35 34 33 32 33 34 34 33
13 13 13 14 15 15 14 14 14 14 14 14 15 16 17 18 19 20 21 21 21 20 18 17 18 19 19 18 18 18 18 17 17 16 17 19 20 21 21 20 21 21 21 22 23 24 25 24 24 24 24 24 26 27 28 28 27 26 24 23 24 25 27 29 31 33 34 34 32 30 31 33 34 33
15 15 15 15 16 16 16 16 16 17 17 16 16 17 18 19 20 20 21 22 22 22 21 19 19 19 20 21 21 21 21 20 18 17 17 19 21 23 24 23 22 22 22 23 24 25 25 25 24 24 24 24 26 27 28 29 29 27 25 24 23 24 26 28 30 32 33 33 32 29 29 31 33 34
17 16 16 17 17 17 17 17 18 19 19 19 18 18 19 20 20 21 22 23 23 24 23 22 21 21 21 22 22 23 23 23 22 20 18 19 21 23 25 25 24 23 23 24 24 25 25 25 24 24 24 25 26 27 28 29 29 29 27 24 23 24 25 27 29 30 32 32 31 29 27 28 31 33
19 19 18 18 19 19 19 19 19 20 21 21 21 21 21 21 22 22 23 23 24 25 25 24 23 22 22 22 23 24 25 25 25 24 21 20 21 22 24 25 25 24 24 24 24 25 25 25 25 25 25 25 25 27 28 29 29 29 28 25 23 23 24 26 27 29 30 31 31 29 26 26 28 30
21 21 20 20 20 21 21 22 22 22 22 23 22 22 24 24 24 24 24 25 25 25 26 25 25 24 24 24 24 25 26 27 28 27 25 23 23 23 25 26 26 26 26 26 25 26 26 26 26 25 25 25 25 26 27 28 29 29 29 27 24 23 23 25 26 28 29 30 30 29 26 24 25 27
23 22 22 22 22 23 23 24 24 23 24 24 24 24 25 26 26 26 26 26 26 26 27 27 26 26 25 25 26 26 27 28 29 29 28 26 25 25 26 27 28 28 28 28 27 27 27 27 27 26 26 26 26 26 26 27 28 29 30 28 25 23 23 24 25 27 28 29 29 29 27 24 23 25
24 24 24 24 24 25 25 25 25 25 25 26 25 25 26 27 27 28 28 28 28 28 28 28 28 28 27 27 28 28 29 29 30 30 30 29 28 27 27 27 28 29 29 29 28 27 27 27 27 27 27 27 26 26 26 27 27 28 29 29 27 24 22 23 24 25 27 28 28 29 28 24 22 23
26 25 25 26 26 26 26 26 26 27 27 27 27 27 27 28 28 28 29 29 29 30 30 30 29 29 29 29 29 30 31 31 31 31 31 31 30 29 29 29 29 30 30 30 29 28 27 27 27 27 26 27 27 26 25 26 26 27 28 29 28 25 22 22 23 24 25 26 27 28 28 25 22 21
28 27 27 27 27 26 26 27 27 27 27 27 28 28 29 29 28 28 29 29 30 30 31 31 30 30 31 31 31 31 33 33 32 32 33 33 32 31 31 30 30 31 31 31 30 29 28 27 27 26 26 27 27 26 25 25 26 26 27 28 27 25 23 22 22 23 24 25 26 27 27 25 22 20
30 29 29 29 28 27 26 27 27 27 27 27 28 29 30 29 28 28 29 29 29 30 31 31 30 30 31 31 31 32 33 34 33 34 34 34 33 33 32 32 31 31 32 32 32 31 29 27 27 26 26 26 27 26 25 25 25 26 26 26 27 26 24 22 22 22 23 23 25 26 26 25 22 19
30 30 30 30 29 28 27 27 27 27 27 28 29 30 30 30 29 29 28 27 27 28 29 30 29 29 29 30 30 30 32 33 34 34 35 35 34 34 34 32 31 31 31 32 32 32 30 29 28 27 27 27 27 26 26 25 25 26 26 26 26 26 24 23 22 22 22 22 23 24 25 25 22 20
30 30 31 31 31 30 28 27 27 27 28 29 29 30 30 30 30 29 28 26 26 27 28 29 29 28 28 29 29 29 30 32 33 33 34 34 33 34 34 33 31 31 31 31 31 32 32 30 29 29 28 27 27 26 26 26 26 26 26 26 25 25 24 23 22 22 22 22 22 23 24 24 23 20
30 31 31 31 31 31 29 27 27 27 29 29 29 30 30 30 30 29 28 27 27 28 28 29 29 29 29 29 29 29 30 31 32 33 32 31 32 33 33 32 31 31 31 30 31 32 32 30 30 29 28 27 27 27 26 26 26 26 26 26 25 24 24 24 23 22 22 22 22 23 23 24 23 21
31 31 31 31 32 31 28 27 27 28 29 29 29 29 29 30 30 28 26 26 28 28 29 30 30 30 30 30 30 30 30 31 32 32 30 30 31 32 32 31 31 31 31 30 30 31 32 30 29 29 29 28 27 27 26 26 25 26 26 26 25 24 23 23 23 22 22 22 22 22 23 23 23 22
30 30 30 31 31 30 27 26 27 28 28 29 28 27 29 30 28 25 25 26 28 29 30 31 32 32 31 31 31 31 31 32 32 31 30 29 30 31 31 31 32 31 31 31 30 31 31 30 29 28 28 28 27 26 26 25 24 25 25 25 24 23 23 23 23 22 22 21 21 22 22 23 24 23
29 29 30 30 29 28 25 24 25 27 28 28 28 28 29 29 26 25 26 27 29 31 32 32 33 33 33 33 32 31 31 31 31 31 30 29 30 31 31 31 31 31 31 31 31 31 31 30 28 27 27 27 27 26 25 24 24 24 23 23 22 22 22 22 22 22 22 22 21 21 21 23 23 23
29 29 29 28 27 26 25 25 25 27 27 28 30 30 29 27 26 27 28 29 30 32 33 34 34 33 33 32 32 32 31 31 31 31 31 31 30 30 30 31 31 31 30 31 32 31 31 29 28 27 26 26 27 26 26 25 24 23 22 21 21 21 21 21 21 21 22 22 21 21 21 21 22 22
28 28 27 26 25 26 26 26 27 27 28 29 30 30 28 27 28 29 30 30 31 32 33 34 34 33 32 31 31 31 31 31 31 31 32 32 31 31 30 30 31 30 29 30 31 30 29 29 28 27 27 27 27 27 27 25 24 22 22 21 20 20 20 20 20 21 21 22 22 21 21 21 21 20
27 26 25 25 24 26 27 27 28 28 29 29 30 29 28 28 29 30 31 31 31 31 32 33 33 32 30 29 29 29 29 29 31 32 33 33 32 31 30 30 30 30 29 29 29 28 28 29 28 27 27 27 27 27 27 25 24 22 21 21 20 20 19 19 19 20 20 21 21 21 21 21 21 20
26 25 24 24 24 25 26 27 28 30 30 31 30 30 30 30 31 32 33 32 32 32 32 31 31 29 28 27 27 27 27 29 31 32 33 33 32 31 31 30 30 29 28 28 28 27 28 28 28 28 28 28 28 27 26 25 23 22 22 21 21 20 20 19 19 19 19 20 20 20 20 20 20 20
26 25 24 24 24 25 26 27 29 30 31 31 31 31 32 33 34 34 34 33 34 34 34 32 30 29 28 27 26 27 28 29 30 32 33 32 32 32 32 31 30 28 28 28 27 27 27 28 28 29 29 29 29 27 26 25 23 22 22 22 22 21 21 20 20 19 19 19 19 18 18 18 18 19
28 27 26 25 25 25 25 26 27 29 30 31 33 34 35 36 36 36 35 34 35 36 36 34 32 30 28 27 27 28 29 29 30 31 31 32 32 32 32 31 30 29 28 28 28 28 29 29 29 30 30 29 28 26 25 25 24 23 22 22 23 23 23 22 21 21 21 20 19 19 18 18 18 18
29 30 29 29 28 28 27 27 27 28 30 32 33 34 35 36 36 36 35 36 37 38 38 35 32 29 28 27 27 28 29 29 30 30 31 31 32 32 32 32 31 29 28 29 29 29 30 31 31 31 30 28 26 25 25 26 25 24 23 23 24 24 24 23 23 22 22 21 20 19 19 19 18 18
29 30 31 31 31 31 31 31 31 31 32 32 32 33 35 36 36 36 36 37 37 38 39 37 32 29 28 27 26 27 29 30 31 30 30 31 32 32 32 32 32 30 30 30 30 30 31 31 31 30 28 26 25 26 27 28 28 27 25 24 25 25 25 25 25 24 24 23 21 20 20 20 20 20
31 32 33 33 33 32 33 33 35 35 35 34 34 34 34 36 37 37 38 38 38 38 38 38 34 31 29 28 27 28 30 31 31 31 31 31 33 34 33 32 32 31 30 31 30 30 30 30 30 29 27 25 27 28 29 30 30 29 28 27 26 26 26 26 26 26 25 24 23 22 21 21 21 21
34 35 35 34 34 34 34 35 37 37 37 37 36 36 36 36 38 39 40 40 39 38 38 37 36 33 32 31 30 30 31 32 32 32 32 33 35 36 35 34 32 31 31 31 30 29 28 27 27 27 27 28 30 31 30 30 31 30 29 29 29 28 28 28 28 27 26 25 24 23 22 22 22 22
37 37 37 36 35 35 36 37 38 40 40 39 38 38 38 38 38 39 41 41 40 39 38 37 36 36 35 34 33 33 33 34 34 34 34 35 36 37 36 35 34 32 32 31 30 29 28 26 25 25 27 30 33 32 29 28 30 30 30 30 30 30 29 29 29 29 27 26 24 24 23 23 23 23
38 38 38 37 36 36 37 38 40 42 43 41 39 39 39 39 38 39 40 39 39 39 38 38 37 37 37 37 36 35 35 35 35 36 36 36 37 37 37 36 35 34 33 32 30 29 28 26 25 25 28 33 36 32 27 26 29 30 31 31 31 31 30 29 29 29 28 26 25 24 23 23 24 24
38 39 39 38 37 37 38 39 41 43 44 44 42 40 39 39 38 38 38 38 38 39 39 39 38 37 37 38 37 37 36 36 36 37 37 37 37 38 38 36 35 34 34 33 31 29 29 28 27 28 31 37 38 32 27 27 30 32 32 33 32 32 30 30 30 30 29 28 26 25 24 24 24 25
40 40 40 39 38 37 38 40 42 43 45 45 43 40 38 37 36 36 36 37 38 39 39 39 38 38 38 38 38 37 37 37 37 38 38 37 37 38 39 37 35 35 36 35 32 31 31 31 32 33 35 38 37 33 31 32 34 34 34 34 33 32 31 31 31 31 30 29 27 26 25 25 25 26
40 40 40 39 37 36 38 40 42 44 45 45 43 40 37 35 34 34 35 36 37 37 37 38 38 38 38 39 39 38 37 37 38 38 38 37 37 38 40 40 38 37 37 36 34 33 33 33 34 35 36 35 35 34 36 37 36 35 34 32 31 31 32 33 32 32 31 30 29 28 27 26 26 27
39 39 39 38 37 37 38 40 42 44 45 44 42 40 37 35 33 33 33 34 34 35 36 37 38 38 38 39 39 38 38 37 37 37 37 38 38 39 40 41 40 39 39 38 36 36 35 34 35 35 34 34 34 36 39 40 38 35 32 30 30 33 33 33 33 32 31 31 31 30 29 28 27 28
39 39 38 38 37 37 37 39 41 44 45 44 41 40 38 36 33 33 33 32 32 33 34 35 36 36 37 38 38 38 38 37 38 39 39 39 39 40 41 41 40 41 42 41 38 36 36 36 37 36 35 35 36 39 41 40 37 34 31 30 32 34 34 33 33 33 33 33 33 31 30 29 29 30
39 38 38 38 37 36 36 37 39 42 43 43 41 40 40 37 35 33 33 33 32 31 31 33 34 34 35 36 36 37 37 38 39 41 42 42 42 41 41 42 41 41 41 41 39 38 38 38 39 38 37 37 39 40 40 39 37 36 34 32 32 33 34 35 35 34 34 34 33 32 32 31 31 31
39 38 38 37 36 35 34 36 38 40 41 42 42 41 40 39 37 35 35 35 34 32 32 34 35 35 35 36 37 39 40 41 42 44 45 45 44 42 42 42 41 40 39 39 39 40 40 40 39 39 38 38 38 38 36 36 37 36 34 34 34 34 35 36 36 36 36 35 33 33 33 33 33 33
38 38 38 37 36 35 35 35 37 40 41 42 42 42 42 41 40 39 38 39 39 38 37 38 39 40 40 40 41 43 44 44 45 46 47 46 45 44 43 43 42 41 41 40 38 38 39 40 39 38 37 37 38 37 35 35 35 35 35 36 36 36 37 37 37 37 37 36 35 35 36 35 34 34
41 40 40 39 38 37 36 35 36 38 42 44 44 43 43 43 44 44 43 43 44 44 43 41 43 45 45 45 45 47 47 47 48 49 48 47 46 44 44 44 41 40 40 38 36 37 39 39 39 38 37 36 36 36 35 36 36 36 36 36 36 37 38 38 38 38 38 37 36 37 37 37 36 36
Wind_Direction
146 150 147 148 158 166 159 158 166 172 171 172 176 179 180 181 186 192 197 202 208 213 221 233 256 290 316 327 335 340 337 331 326 323 322 323 326 330 337 345 349 353 356 357 357 358 359 359 357 358 357 355 353 351 349 348 347 346 345 346 347 349 351 353 353 352 351 349 348 348 350 354 356 354
171 179 182 173 173 175 170 170 177 178 177 178 182 184 184 185 190 197 201 206 213 220 227 238 258 282 304 319 329 335 335 333 330 324 318 318 321 326 333 341 345 350 353 353 354 357 359 358 358 360 1 0 358 355 352 348 345 345 345 347 349 351 353 354 354 352 351 350 350 351 355 358 0 358
203 202 201 195 190 189 188 186 185 184 182 184 187 189 189 190 194 199 204 209 214 222 231 240 254 275 295 312 323 327 328 331 332 326 317 315 320 326 332 337 343 347 349 350 352 355 357 357 357 0 3 3 0 356 351 347 344 344 346 348 350 353 354 355 354 353 352 351 351 354 357 360 1 360
227 222 218 215 210 207 205 199 195 192 190 190 192 194 195 197 199 202 207 212 216 222 231 240 248 265 285 300 310 316 319 325 329 327 322 320 324 330 333 335 340 344 344 346 349 352 356 356 357 360 3 3 1 356 350 346 344 344 346 348 351 353 355 354 355 354 353 353 354 356 358 360 1 0
237 235 235 231 227 226 226 220 210 202 198 198 200 200 202 204 206 208 212 216 221 225 230 239 249 259 273 286 296 304 309 316 322 324 323 324 327 331 331 332 337 339 338 342 345 348 353 356 356 359 2 3 360 355 349 345 344 345 347 349 351 354 355 354 354 355 355 354 355 357 358 360 0 360
238 240 243 243 239 236 238 238 233 223 213 208 208 208 209 211 213 215 217 220 225 230 234 240 249 257 266 277 287 295 300 307 313 315 317 319 322 326 327 328 332 333 334 338 342 344 349 354 355 358 2 4 1 356 352 348 347 347 348 350 352 353 354 354 354 356 357 357 357 357 358 360 360 360
242 240 242 247 247 245 243 245 247 243 235 226 221 219 217 218 220 221 222 224 227 233 239 244 250 255 263 271 278 286 293 299 305 308 309 312 315 319 321 323 327 329 331 335 339 340 345 349 352 357 2 5 3 1 358 355 352 350 350 351 353 353 354 354 355 357 359 359 358 357 358 359 360 360
247 247 247 249 250 250 248 248 250 249 247 242 236 232 228 227 228 228 229 230 231 234 240 247 253 256 261 267 273 280 287 293 299 304 306 307 310 314 316 318 322 325 328 333 337 338 340 344 348 353 0 5 5 3 2 360 357 354 352 352 352 353 353 354 354 357 359 0 360 358 358 358 359 360
245 247 249 252 253 252 252 252 251 250 250 249 246 244 241 238 237 236 236 237 237 238 240 246 254 260 264 269 274 279 283 287 293 300 303 304 306 309 313 315 318 323 327 331 334 336 336 338 343 348 355 2 4 3 2 1 359 357 354 351 351 352 353 353 354 357 360 1 1 360 359 358 358 359
247 247 248 252 254 255 255 255 255 254 252 252 250 249 249 248 247 245 244 244 244 244 244 246 251 259 266 270 275 278 282 284 288 293 297 298 300 303 308 312 316 320 324 327 330 332 331 333 337 343 350 357 1 1 1 0 359 357 354 351 350 350 352 352 354 357 360 1 2 1 360 358 357 358
249 250 250 251 254 255 256 256 257 257 256 255 254 253 253 253 252 252 251 251 250 249 250 250 251 255 262 268 273 277 281 284 286 288 291 292 293 296 301 306 310 314 317 320 323 325 326 328 333 339 344 351 356 357 358 359 358 356 354 351 348 349 350 351 353 357 360 1 2 2 0 359 357 357
248 251 252 254 255 257 258 257 257 257 257 257 257 257 257 256 255 256 255 255 255 254 254 254 255 256 259 263 268 273 277 280 283 286 289 290 290 290 293 299 304 306 309 311 315 318 321 324 330 335 339 346 351 353 355 356 356 355 353 350 348 347 348 350 352 355 359 1 3 2 1 359 358 357
245 249 252 254 257 258 260 260 260 259 258 258 258 259 259 259 258 258 258 258 259 259 259 259 259 259 260 262 264 268 272 276 279 283 286 289 290 290 291 294 299 301 303 305 309 313 318 322 327 331 335 340 346 349 351 352 354 353 351 349 348 347 346 348 351 354 357 1 2 3 1 359 358 357
244 247 249 252 255 257 259 261 263 263 262 260 260 260 261 262 262 261 261 261 262 262 262 263 263 263 263 264 265 267 269 272 276 280 284 286 288 290 290 292 295 298 300 302 306 310 316 320 324 327 331 335 340 344 346 348 350 351 350 348 347 345 344 346 349 352 355 359 2 2 1 359 357 357
246 247 248 250 252 254 258 261 263 265 265 264 262 262 262 263 263 264 264 264 264 265 265 265 266 266 266 267 268 269 269 271 273 277 281 283 285 288 289 290 291 294 296 299 302 306 311 315 319 324 327 330 334 339 342 344 346 349 348 346 344 343 342 344 347 350 353 357 1 2 1 359 357 356
249 249 250 250 252 254 257 260 262 264 265 266 265 265 264 264 265 266 267 267 267 268 268 268 269 270 270 269 270 271 271 272 274 275 278 280 283 286 288 289 289 290 293 296 299 302 306 310 314 319 323 325 329 333 337 338 341 345 346 343 341 340 339 341 344 348 351 356 359 1 360 359 357 355
251 252 253 253 254 255 257 259 262 264 265 265 265 265 265 266 267 268 268 269 270 271 271 271 272 272 272 271 271 272 273 273 275 275 277 279 281 284 286 287 288 289 292 295 297 299 303 307 310 314 318 320 323 328 332 334 336 340 343 341 338 336 336 337 340 345 349 353 358 359 359 358 356 354
252 253 255 256 257 258 258 259 262 264 265 264 264 264 265 266 267 268 268 269 270 272 273 273 273 273 273 273 272 272 273 274 275 275 276 277 279 281 283 284 286 288 290 293 295 298 300 303 307 310 313 316 318 322 326 329 332 336 338 338 335 333 333 333 336 342 346 350 356 358 357 356 354 352
250 252 254 256 258 259 259 260 261 263 264 263 262 263 264 265 267 267 268 268 269 270 272 272 272 271 272 273 273 273 273 274 275 275 276 277 279 280 281 282 284 285 287 289 292 295 297 300 304 307 309 311 314 318 322 325 328 331 334 334 332 330 329 329 332 338 342 347 353 356 355 354 353 350
250 251 253 255 258 259 260 261 261 262 263 262 261 261 261 263 264 266 268 269 270 271 271 272 272 272 271 272 272 273 273 273 274 274 275 277 279 280 280 281 283 283 284 286 289 292 294 297 300 303 306 308 311 315 318 321 324 326 329 329 328 327 326 326 328 333 338 343 349 354 354 352 351 348
251 251 253 254 256 258 260 261 261 261 262 262 261 261 261 260 261 263 265 267 269 271 272 273 273 273 273 272 272 273 273 273 273 274 275 277 278 279 280 281 282 282 283 285 287 289 291 294 297 299 302 305 308 312 315 318 321 322 324 325 325 324 323 323 325 329 333 339 345 350 351 350 349 347
253 252 253 254 255 257 260 261 260 260 261 261 261 261 261 261 260 260 262 264 266 268 269 271 272 272 273 273 272 273 274 274 275 275 277 278 278 279 281 282 282 282 283 284 284 285 288 290 293 296 299 302 305 309 312 315 317 318 321 322 321 321 321 321 322 326 329 334 340 346 348 348 347 345
254 254 254 254 255 258 259 260 259 259 260 260 261 261 261 260 260 260 261 261 263 264 264 266 268 270 271 271 271 272 273 275 277 279 281 281 280 281 281 281 282 282 282 283 283 283 284 286 289 293 296 299 302 305 307 310 312 314 317 318 317 318 319 319 321 323 325 330 336 341 344 345 344 343
256 256 256 256 257 259 260 259 258 258 259 260 260 260 260 261 262 262 260 259 260 261 262 263 265 267 270 271 272 274 275 277 280 282 284 284 283 283 283 282 282 281 281 282 282 281 282 284 287 290 293 295 297 300 302 304 306 308 311 313 313 315 317 318 319 320 322 325 332 338 341 343 342 341
255 256 258 259 260 261 261 260 259 258 258 259 259 259 259 261 263 262 260 258 257 259 262 264 266 268 270 272 275 277 279 281 282 284 285 285 284 283 284 283 281 280 280 280 280 280 282 284 286 288 290 292 293 295 297 299 302 304 305 307 309 311 314 316 317 318 319 322 327 333 338 340 339 339
256 258 260 262 263 263 262 261 260 259 259 259 260 260 261 262 262 262 261 260 258 259 262 265 268 270 272 274 276 278 280 282 284 284 284 283 282 283 282 282 281 281 280 279 279 280 282 284 286 288 289 289 290 291 293 295 298 299 300 302 305 308 310 311 313 315 317 320 324 329 334 336 336 338
258 259 260 260 261 261 262 262 261 261 260 261 262 263 263 262 261 262 262 261 261 262 264 267 270 273 275 276 277 278 281 282 282 281 280 280 280 281 281 281 280 280 280 280 280 282 282 283 285 286 286 287 287 288 290 293 295 295 295 298 302 304 306 307 309 312 314 317 320 325 329 332 332 334
259 259 259 259 259 259 261 262 261 261 261 262 263 264 263 262 262 262 263 264 266 267 268 270 273 276 278 279 279 279 279 278 278 277 277 278 279 280 280 280 280 280 280 280 281 281 281 282 284 284 284 285 286 286 288 290 290 290 292 296 298 300 303 304 306 308 310 312 315 319 323 326 327 328
260 260 259 258 257 258 259 260 261 261 262 263 263 263 262 262 262 263 265 266 268 269 270 272 275 278 280 280 278 276 275 275 275 276 277 277 278 278 278 279 279 279 279 279 279 280 280 282 283 283 283 284 286 286 286 287 287 286 289 293 296 298 300 302 304 305 306 307 310 313 316 319 320 320
260 260 260 258 257 258 260 261 263 265 265 264 263 262 261 261 263 265 266 268 269 270 271 272 274 276 277 276 274 273 273 273 274 274 275 275 275 276 276 277 277 277 277 278 279 279 280 282 283 283 284 286 287 286 285 286 285 283 286 291 293 295 297 299 301 303 304 304 306 308 311 312 313 313
259 259 260 260 259 260 260 262 264 265 264 264 264 264 264 265 266 267 268 269 269 270 270 271 272 273 274 272 271 270 271 271 270 271 272 273 273 273 273 274 275 276 276 277 279 280 282 283 284 284 286 288 286 285 286 287 285 281 283 287 289 292 294 297 299 301 301 302 303 305 307 310 311 311
253 254 255 257 259 261 261 262 262 262 263 264 266 266 266 266 267 267 267 267 267 269 271 272 272 272 272 270 269 268 268 267 267 268 269 271 271 270 270 271 272 273 275 276 279 281 283 284 285 285 285 285 284 284 286 287 284 281 281 283 286 290 293 294 295 297 298 299 300 302 305 308 310 311
246 248 251 254 258 262 264 264 264 263 263 264 266 267 268 268 267 267 266 266 266 267 270 272 273 273 271 270 268 267 266 265 265 266 267 267 268 268 268 269 270 271 273 275 278 280 281 283 284 283 280 280 281 282 283 285 284 283 281 280 283 288 290 290 291 293 294 296 298 300 304 307 309 310
250 251 253 255 258 261 264 267 267 266 265 265 266 267 268 269 269 268 267 267 267 268 268 271 273 273 272 270 268 266 265 263 262 262 262 263 265 267 268 269 270 271 272 273 275 276 276 278 279 278 277 278 278 278 279 282 284 283 281 280 282 284 286 287 288 289 291 293 295 298 302 305 307 307
256 258 259 259 259 260 263 266 268 268 266 266 267 268 267 268 270 271 270 269 269 270 269 270 271 272 272 271 269 267 265 263 262 260 260 260 263 265 267 268 270 270 270 270 271 272 272 270 271 274 276 277 276 276 278 280 281 281 280 279 279 280 282 283 285 286 288 289 292 295 299 301 303 304
257 260 261 261 260 260 260 262 265 266 265 265 267 268 269 269 270 272 273 272 270 270 269 269 269 271 272 272 270 268 266 264 262 261 260 260 262 264 265 267 269 269 269 269 270 271 270 267 268 272 276 277 275 275 278 280 281 281 280 277 276 277 279 280 281 282 284 286 288 290 294 298 299 300
257 260 260 260 259 259 259 260 261 263 264 264 265 268 271 272 272 273 274 271 268 267 268 269 270 271 271 271 270 268 267 265 263 261 261 261 261 263 264 265 266 268 269 269 268 267 267 266 268 271 273 274 273 274 278 282 282 282 281 278 277 278 279 280 279 280 281 282 284 286 289 293 294 296
256 258 259 259 258 257 257 257 258 260 261 262 263 267 271 273 274 274 273 270 267 266 266 268 269 270 269 269 268 267 266 264 262 261 261 262 263 264 265 264 264 265 266 266 265 265 265 266 266 267 267 269 272 274 276 278 280 282 282 280 279 280 279 278 276 276 278 279 280 282 285 287 289 291
256 257 258 259 257 256 255 254 255 257 259 259 261 266 270 272 272 272 270 268 267 266 266 266 267 267 267 267 266 265 264 264 263 263 263 264 265 267 267 265 262 261 262 263 262 262 263 263 264 265 265 267 271 273 271 271 275 281 282 280 278 278 276 274 273 273 274 276 278 279 280 282 284 287
252 253 255 256 255 254 253 252 253 254 256 257 259 263 267 268 268 267 267 266 266 266 265 265 265 266 265 265 264 264 265 267 268 269 269 269 269 270 270 268 264 260 260 261 260 259 260 262 265 266 265 265 267 268 269 270 274 278 278 275 273 273 273 271 271 271 272 275 277 277 277 279 282 285
248 250 253 255 256 254 253 252 252 253 253 254 257 261 263 264 263 263 263 263 264 265 265 265 265 265 264 263 263 264 267 270 273 275 275 275 274 273 273 272 267 261 261 263 264 263 262 261 261 261 261 261 264 267 268 269 272 276 275 270 267 268 269 270 270 269 270 273 275 275 275 278 280 282
248 252 255 257 257 256 254 253 252 252 252 252 254 258 261 262 261 261 260 260 262 264 266 266 266 265 263 263 263 265 268 271 275 277 278 278 277 275 273 271 268 265 263 264 265 266 262 258 257 258 260 262 264 265 265 266 270 276 276 270 266 267 269 269 268 267 268 269 270 270 272 274 276 278
249 252 254 255 256 256 255 253 252 252 251 251 252 254 258 261 261 260 259 260 261 263 264 266 266 264 262 262 264 266 269 271 274 276 277 278 278 275 271 269 269 270 269 267 266 265 263 259 258 259 260 261 262 261 261 263 269 273 273 270 269 270 271 269 267 266 267 267 267 268 269 271 273 276
249 251 252 254 255 255 255 255 253 251 250 251 252 253 255 259 260 260 259 260 261 261 261 263 264 264 263 263 264 267 270 272 274 275 275 276 276 273 269 266 267 270 271 271 267 264 261 260 259 258 258 259 260 260 260 264 269 271 271 270 271 271 270 268 267 266 266 266 267 268 269 270 272 274
250 250 251 253 255 256 257 258 258 254 250 249 250 252 255 258 259 260 259 259 260 261 261 261 263 264 264 264 264 266 269 271 272 273 273 273 272 270 268 267 268 271 273 272 267 263 260 257 255 255 255 254 255 258 263 269 273 273 271 269 268 268 267 265 264 264 265 266 267 269 270 271 272 274
Height
3263 3264 3264 3264 3264 3264 3264 3265 3265 3266 3266 3267 3268 3269 3270 3271 3272 3272 3273 3273 3274 3274 3274 3274 3274 3274 3274 3273 3273 3272 3272 3271 3270 3269 3268 3267 3266 3265 3264 3263 3261 3260 3259 3258 3256 3254 3252 3250 3247 3245 3243 3241 3240 3238 3237 3235 3234 3232 3230 3228 3226 3224 3221 3218 3214 3211 3207 3204 3200 3196 3193 3189 3186 3183
3263 3264 3264 3264 3264 3264 3264 3265 3265 3265 3266 3266 3267 3268 3269 3270 3271 3272 3273 3273 3273 3274 3274 3274 3274 3274 3273 3273 3272 3271 3271 3270 3270 3269 3268 3267 3266 3265 3264 3263 3261 3260 3259 3258 3256 3254 3252 3249 3247 3245 3243 3241 3239 3238 3236 3235 3233 3232 3230 3228 3226 3223 3220 3217 3214 3211 3207 3204 3200 3196 3192 3189 3186 3183
3263 3264 3264 3264 3264 3264 3264 3264 3265 3265 3265 3266 3267 3268 3269 3270 3270 3271 3272 3272 3273 3273 3273 3273 3273 3273 3273 3272 3271 3271 3270 3269 3269 3268 3267 3267 3266 3265 3263 3262 3261 3260 3259 3258 3256 3254 3252 3250 3248 3245 3243 3241 3239 3237 3236 3235 3233 3231 3230 3228 3225 3223 3220 3217 3214 3211 3207 3204 3200 3196 3192 3189 3186 3183
3263 3263 3263 3264 3264 3264 3264 3264 3264 3265 3265 3266 3266 3267 3268 3269 3269 3270 3271 3271 3272 3272 3273 3273 3273 3273 3272 3272 3271 3270 3269 3269 3268 3267 3267 3266 3265 3264 3263 3261 3260 3260 3259 3257 3256 3254 3252 3250 3248 3245 3243 3241 3239 3237 3236 3234 3233 3231 3229 3227 3225 3223 3220 3217 3214 3211 3207 3203 3200 3196 3192 3189 3186 3183
3262 3263 3263 3263 3263 3264 3264 3264 3264 3264 3265 3265 3266 3266 3267 3268 3268 3269 3270 3270 3271 3271 3271 3272 3272 3272 3271 3271 3270 3269 3269 3268 3267 3266 3265 3265 3264 3263 3262 3261 3260 3260 3259 3257 3256 3254 3253 3251 3248 3246 3244 3241 3239 3237 3236 3234 3232 3231 3229 3227 3225 3222 3220 3217 3214 3211 3207 3203 3200 3196 3193 3189 3186 3183
3261 3262 3262 3262 3263 3263 3263 3263 3264 3264 3264 3264 3265 3265 3266 3267 3267 3268 3269 3269 3270 3270 3270 3270 3270 3270 3270 3269 3269 3268 3268 3267 3267 3266 3265 3264 3263 3263 3262 3261 3260 3259 3258 3257 3256 3254 3253 3251 3249 3247 3244 3242 3240 3238 3236 3234 3232 3230 3229 3227 3225 3222 3220 3217 3214 3211 3207 3203 3200 3196 3193 3190 3187 3184
3261 3261 3261 3261 3262 3262 3263 3263 3263 3263 3263 3264 3264 3264 3265 3265 3266 3266 3267 3268 3268 3269 3269 3269 3269 3269 3269 3268 3268 3267 3267 3266 3265 3265 3264 3263 3262 3262 3261 3260 3259 3259 3258 3256 3255 3254 3252 3251 3249 3247 3244 3242 3240 3238 3236 3234 3232 3230 3228 3227 3225 3222 3220 3217 3214 3211 3207 3203 3200 3196 3193 3190 3187 3184
3259 3260 3260 3260 3261 3261 3262 3262 3262 3263 3263 3263 3263 3263 3264 3264 3264 3265 3266 3266 3267 3267 3268 3268 3267 3267 3267 3267 3266 3266 3266 3265 3264 3264 3263 3262 3261 3260 3260 3260 3259 3258 3257 3256 3254 3253 3252 3250 3249 3247 3244 3242 3240 3238 3236 3234 3232 3230 3228 3226 3224 3222 3220 3217 3214 3211 3207 3203 3200 3197 3193 3190 3187 3185
3258 3258 3259 3259 3259 3260 3261 3261 3261 3261 3261 3262 3262 3262 3263 3263 3263 3263 3264 3265 3265 3266 3267 3267 3266 3266 3266 3265 3265 3264 3264 3264 3263 3262 3261 3260 3259 3259 3258 3258 3257 3256 3255 3254 3253 3252 3251 3250 3248 3247 3244 3242 3240 3238 3236 3234 3232 3229 3227 3225 3224 3222 3220 3217 3215 3211 3207 3204 3200 3197 3194 3191 3188 3185
3256 3256 3257 3257 3258 3259 3259 3259 3260 3260 3260 3260 3261 3261 3261 3261 3262 3262 3262 3263 3263 3264 3265 3265 3265 3264 3264 3264 3263 3262 3262 3262 3262 3262 3260 3259 3258 3257 3256 3256 3256 3255 3254 3253 3252 3251 3250 3249 3248 3246 3244 3242 3240 3238 3236 3234 3231 3229 3227 3225 3223 3221 3219 3217 3214 3211 3208 3204 3201 3197 3194 3191 3188 3185
3253 3254 3255 3255 3256 3256 3257 3257 3258 3258 3258 3258 3259 3259 3259 3260 3260 3260 3261 3261 3261 3262 3262 3263 3263 3263 3263 3262 3261 3261 3260 3260 3260 3260 3260 3259 3258 3256 3255 3254 3254 3254 3252 3251 3251 3250 3249 3248 3247 3245 3243 3241 3239 3238 3236 3233 3231 3228 3226 3224 3222 3220 3218 3216 3214 3211 3208 3204 3201 3197 3195 3192 3189 3186
3251 3251 3252 3253 3254 3254 3255 3255 3255 3256 3256 3256 3257 3257 3257 3258 3258 3258 3259 3259 3259 3260 3260 3261 3261 3261 3261 3260 3260 3259 3258 3257 3257 3257 3257 3257 3257 3256 3254 3253 3253 3252 3251 3250 3249 3249 3248 3247 3245 3244 3243 3241 3239 3237 3235 3233 3230 3228 3225 3223 3221 3219 3217 3215 3213 3211 3208 3205 3201 3198 3195 3192 3190 3187
3248 3249 3250 3250 3251 3251 3252 3252 3253 3253 3254 3254 3255 3255 3255 3255 3256 3256 3256 3256 3257 3257 3258 3258 3259 3259 3259 3258 3258 3257 3256 3255 3254 3254 3255 3255 3255 3254 3253 3252 3251 3250 3249 3249 3248 3247 3246 3245 3244 3243 3242 3240 3238 3236 3234 3232 3230 3227 3225 3222 3221 3218 3216 3214 3212 3210 3207 3204 3201 3198 3195 3192 3190 3187
3245 3246 3247 3248 3248 3249 3249 3250 3250 3251 3251 3251 3252 3253 3253 3253 3253 3253 3254 3254 3255 3255 3255 3255 3256 3256 3256 3256 3255 3255 3254 3253 3252 3252 3252 3252 3253 3252 3251 3250 3249 3248 3247 3247 3246 3246 3245 3244 3243 3241 3240 3239 3237 3235 3233 3231 3229 3226 3224 3222 3220 3218 3216 3214 3211 3209 3207 3204 3201 3198 3195 3193 3190 3188
3243 3244 3244 3245 3245 3246 3246 3247 3248 3248 3248 3249 3249 3250 3250 3250 3250 3251 3251 3252 3252 3252 3252 3253 3253 3253 3254 3253 3252 3252 3251 3250 3250 3250 3250 3250 3250 3250 3250 3249 3248 3246 3246 3245 3245 3245 3244 3243 3241 3240 3238 3237 3235 3234 3232 3230 3228 3225 3223 3221 3219 3217 3215 3213 3211 3208 3206 3204 3201 3198 3195 3193 3191 3188
3240 3241 3241 3242 3242 3243 3244 3244 3245 3245 3246 3246 3246 3246 3247 3247 3247 3248 3248 3249 3249 3249 3249 3249 3250 3250 3250 3250 3250 3249 3248 3248 3248 3248 3247 3247 3247 3248 3247 3247 3246 3245 3244 3244 3243 3243 3243 3242 3240 3238 3237 3235 3234 3232 3230 3229 3227 3225 3222 3220 3218 3216 3214 3212 3210 3208 3206 3203 3201 3198 3195 3193 3191 3189
3237 3237 3238 3239 3239 3240 3241 3241 3241 3242 3243 3243 3243 3243 3243 3244 3245 3245 3245 3245 3246 3245 3245 3246 3246 3247 3246 3246 3246 3246 3244 3245 3245 3245 3245 3245 3245 3245 3245 3244 3243 3243 3242 3242 3241 3241 3241 3240 3238 3237 3235 3233 3231 3230 3229 3227 3225 3223 3221 3219 3217 3215 3213 3211 3209 3207 3205 3203 3200 3198 3195 3193 3191 3189
3233 3234 3235 3235 3236 3237 3238 3238 3238 3239 3239 3240 3240 3240 3240 3241 3242 3242 3242 3242 3242 3242 3242 3242 3243 3243 3242 3242 3243 3242 3241 3241 3242 3241 3241 3241 3242 3242 3241 3241 3241 3241 3240 3239 3239 3238 3238 3238 3236 3235 3233 3231 3229 3228 3227 3225 3223 3222 3220 3218 3216 3214 3212 3210 3208 3206 3204 3202 3200 3197 3195 3192 3190 3188
3230 3231 3231 3232 3233 3233 3234 3235 3235 3236 3236 3236 3236 3236 3237 3238 3238 3238 3239 3240 3240 3239 3239 3238 3239 3239 3239 3238 3238 3238 3238 3237 3237 3238 3238 3238 3238 3238 3238 3238 3239 3238 3237 3236 3236 3235 3235 3235 3234 3232 3230 3229 3227 3226 3225 3223 3221 3220 3218 3217 3215 3212 3210 3209 3207 3205 3203 3201 3199 3196 3194 3192 3190 3188
3226 3227 3228 3228 3229 3230 3230 3231 3232 3232 3232 3232 3232 3232 3233 3234 3234 3235 3236 3236 3236 3236 3235 3235 3235 3235 3235 3235 3235 3235 3234 3234 3233 3234 3234 3235 3235 3234 3234 3235 3236 3235 3235 3234 3233 3232 3232 3232 3231 3229 3228 3226 3225 3223 3222 3221 3219 3218 3216 3215 3213 3211 3209 3207 3205 3204 3202 3200 3198 3196 3193 3191 3189 3187
3223 3223 3224 3225 3225 3226 3227 3228 3229 3229 3228 3228 3228 3228 3229 3229 3230 3231 3232 3233 3233 3232 3232 3231 3231 3231 3231 3231 3231 3231 3231 3230 3230 3230 3231 3232 3231 3230 3231 3231 3232 3232 3231 3231 3231 3230 3229 3229 3228 3226 3225 3224 3222 3221 3220 3219 3217 3215 3214 3213 3211 3210 3208 3206 3204 3202 3200 3199 3197 3195 3193 3191 3188 3187
3219 3219 3220 3221 3221 3222 3224 3225 3225 3225 3225 3224 3224 3225 3225 3225 3226 3228 3229 3230 3229 3229 3228 3228 3227 3227 3227 3227 3228 3228 3227 3227 3226 3226 3228 3229 3228 3227 3227 3228 3228 3228 3228 3228 3228 3227 3226 3226 3225 3223 3222 3221 3220 3218 3217 3216 3215 3213 3212 3210 3209 3208 3206 3205 3203 3201 3200 3198 3196 3194 3192 3190 3188 3186
3215 3216 3217 3217 3218 3219 3221 3222 3222 3221 3221 3221 3221 3221 3221 3221 3223 3225 3226 3226 3225 3224 3224 3224 3223 3223 3224 3224 3224 3224 3224 3223 3223 3223 3224 3225 3224 3223 3224 3224 3224 3224 3224 3224 3224 3223 3222 3222 3222 3220 3219 3218 3217 3216 3214 3213 3212 3211 3209 3208 3206 3205 3204 3203 3202 3200 3199 3197 3195 3193 3191 3189 3187 3185
3211 3212 3213 3214 3214 3215 3217 3218 3218 3218 3217 3217 3217 3217 3217 3218 3220 3222 3222 3222 3221 3220 3220 3220 3219 3220 3220 3220 3220 3221 3221 3221 3220 3221 3221 3221 3221 3220 3220 3220 3220 3220 3220 3220 3220 3219 3218 3218 3218 3217 3216 3214 3213 3212 3211 3211 3209 3208 3207 3206 3204 3202 3201 3200 3199 3198 3197 3196 3194 3192 3190 3188 3187 3185
3207 3208 3209 3210 3211 3212 3213 3214 3214 3214 3214 3214 3213 3213 3214 3215 3217 3218 3217 3217 3217 3216 3215 3215 3215 3216 3216 3217 3217 3217 3217 3217 3217 3217 3217 3217 3217 3216 3216 3216 3216 3216 3216 3216 3215 3215 3215 3214 3214 3214 3213 3212 3210 3209 3208 3207 3207 3205 3204 3203 3202 3200 3199 3198 3197 3196 3195 3194 3192 3191 3189 3188 3186 3184
3204 3205 3206 3207 3208 3208 3209 3210 3210 3210 3211 3210 3210 3210 3211 3212 3213 3213 3213 3213 3213 3213 3212 3212 3212 3212 3213 3213 3213 3214 3214 3214 3214 3213 3213 3213 3212 3212 3212 3212 3212 3212 3212 3212 3211 3211 3211 3211 3211 3210 3209 3208 3207 3206 3204 3204 3204 3203 3201 3201 3200 3198 3197 3196 3195 3193 3193 3191 3190 3189 3187 3186 3185 3184
3200 3202 3202 3203 3204 3205 3205 3206 3206 3207 3207 3207 3206 3207 3208 3209 3209 3208 3208 3208 3209 3209 3209 3208 3208 3209 3210 3210 3210 3211 3211 3211 3210 3209 3209 3208 3208 3209 3209 3209 3208 3208 3208 3208 3208 3208 3208 3207 3207 3207 3206 3205 3204 3203 3201 3201 3200 3200 3199 3198 3197 3196 3196 3194 3193 3192 3190 3189 3188 3186 3185 3184 3183 3181
3197 3198 3199 3200 3201 3201 3201 3202 3202 3202 3203 3203 3203 3204 3205 3205 3205 3204 3204 3204 3205 3205 3205 3205 3205 3206 3207 3207 3207 3208 3208 3207 3206 3205 3205 3205 3205 3205 3205 3205 3205 3205 3205 3204 3204 3205 3204 3204 3204 3203 3202 3201 3200 3199 3199 3198 3197 3197 3196 3195 3194 3194 3194 3193 3191 3190 3188 3187 3185 3184 3183 3182 3180 3179
3193 3194 3195 3196 3197 3197 3198 3198 3198 3198 3198 3199 3200 3200 3200 3200 3200 3199 3200 3200 3200 3200 3200 3201 3202 3203 3203 3204 3204 3204 3204 3203 3202 3202 3201 3201 3201 3201 3201 3201 3201 3201 3201 3201 3201 3201 3201 3200 3200 3200 3199 3198 3197 3196 3196 3195 3194 3193 3192 3192 3191 3191 3191 3190 3189 3188 3186 3185 3184 3183 3181 3180 3179 3177
3189 3190 3191 3192 3193 3193 3194 3194 3194 3194 3195 3195 3195 3195 3195 3195 3195 3195 3196 3196 3196 3196 3196 3197 3198 3199 3200 3200 3200 3200 3199 3199 3199 3198 3198 3198 3197 3197 3197 3197 3197 3197 3198 3197 3197 3197 3197 3197 3197 3196 3195 3195 3194 3193 3193 3192 3191 3190 3190 3189 3188 3188 3188 3187 3186 3185 3184 3182 3181 3180 3179 3178 3177 3175
3185 3186 3187 3187 3188 3189 3190 3190 3190 3190 3190 3190 3190 3190 3190 3191 3191 3192 3192 3192 3192 3191 3191 3192 3194 3195 3195 3196 3196 3195 3195 3194 3194 3194 3194 3194 3193 3193 3193 3193 3192 3193 3194 3194 3194 3194 3194 3194 3193 3193 3192 3192 3191 3190 3189 3189 3188 3187 3187 3186 3186 3185 3185 3184 3183 3182 3181 3180 3179 3178 3176 3175 3174 3172
3180 3181 3182 3182 3183 3184 3184 3185 3185 3185 3185 3185 3185 3186 3186 3186 3187 3188 3188 3188 3187 3187 3187 3188 3189 3190 3190 3191 3191 3191 3190 3190 3189 3190 3190 3190 3189 3189 3189 3189 3188 3189 3189 3190 3190 3190 3190 3190 3190 3189 3189 3188 3187 3186 3186 3185 3184 3184 3183 3183 3182 3182 3181 3181 3180 3179 3178 3176 3175 3174 3173 3172 3171 3170
3173 3175 3176 3177 3178 3179 3179 3180 3180 3180 3180 3181 3181 3182 3182 3182 3182 3183 3183 3183 3183 3184 3183 3183 3184 3185 3186 3186 3186 3186 3185 3185 3185 3185 3185 3185 3185 3184 3184 3184 3184 3185 3185 3186 3186 3186 3186 3185 3185 3185 3184 3183 3182 3182 3182 3182 3181 3181 3180 3180 3179 3178 3178 3177 3176 3175 3174 3173 3172 3171 3170 3169 3168 3167
3168 3169 3170 3172 3174 3174 3174 3174 3174 3175 3175 3176 3177 3178 3178 3178 3178 3178 3177 3178 3179 3180 3180 3180 3180 3180 3181 3181 3181 3181 3180 3180 3180 3180 3181 3181 3180 3180 3180 3180 3180 3181 3181 3181 3181 3181 3181 3180 3180 3180 3180 3179 3178 3177 3178 3178 3178 3177 3177 3176 3176 3175 3174 3174 3173 3172 3171 3170 3169 3168 3167 3166 3165 3164
3163 3164 3165 3167 3169 3170 3170 3169 3169 3169 3170 3171 3172 3173 3173 3174 3174 3173 3173 3174 3175 3175 3176 3176 3176 3176 3176 3175 3176 3176 3175 3175 3175 3175 3176 3176 3176 3175 3175 3176 3176 3176 3176 3176 3176 3176 3175 3175 3174 3174 3175 3175 3174 3174 3175 3175 3174 3173 3173 3172 3172 3171 3171 3170 3170 3169 3168 3167 3166 3165 3164 3163 3162 3161
3158 3159 3161 3162 3163 3164 3165 3165 3164 3164 3164 3166 3167 3168 3168 3169 3170 3169 3170 3170 3171 3171 3171 3171 3171 3171 3171 3170 3170 3170 3170 3170 3170 3170 3170 3171 3171 3171 3171 3171 3171 3171 3171 3171 3171 3171 3171 3170 3170 3169 3170 3170 3169 3169 3170 3171 3169 3168 3168 3168 3167 3167 3167 3167 3166 3166 3165 3164 3163 3162 3160 3159 3158 3158
3153 3154 3155 3156 3158 3159 3160 3160 3160 3159 3159 3160 3162 3163 3164 3165 3165 3166 3167 3167 3166 3166 3166 3166 3167 3167 3166 3165 3165 3165 3165 3165 3165 3165 3165 3166 3166 3166 3166 3166 3167 3167 3166 3166 3166 3166 3166 3166 3165 3164 3165 3165 3165 3165 3166 3166 3164 3164 3164 3163 3163 3162 3162 3162 3162 3162 3161 3160 3159 3158 3157 3156 3155 3154
3148 3149 3149 3151 3152 3153 3154 3155 3155 3155 3155 3155 3156 3158 3159 3160 3161 3162 3162 3162 3161 3161 3162 3162 3162 3162 3162 3160 3160 3160 3159 3159 3159 3159 3160 3160 3161 3161 3161 3162 3162 3162 3161 3161 3161 3161 3161 3161 3161 3160 3160 3160 3160 3161 3161 3160 3159 3159 3160 3159 3158 3158 3158 3158 3157 3157 3156 3156 3155 3153 3152 3151 3150 3150
3142 3143 3144 3145 3147 3148 3149 3150 3150 3150 3150 3150 3151 3153 3154 3155 3156 3156 3157 3157 3157 3157 3157 3157 3157 3157 3157 3156 3155 3155 3154 3154 3154 3154 3155 3156 3157 3157 3156 3157 3158 3157 3156 3155 3155 3155 3155 3156 3156 3156 3155 3155 3156 3156 3155 3154 3155 3156 3156 3155 3154 3153 3153 3153 3152 3152 3152 3151 3150 3149 3148 3147 3146 3145
3137 3138 3139 3140 3142 3143 3144 3144 3145 3145 3145 3146 3147 3148 3149 3150 3151 3151 3151 3151 3151 3152 3152 3152 3152 3151 3151 3151 3150 3150 3150 3149 3149 3149 3150 3151 3152 3152 3152 3152 3152 3151 3150 3149 3149 3149 3150 3151 3151 3151 3150 3150 3150 3150 3150 3150 3151 3152 3152 3151 3150 3149 3148 3148 3148 3147 3147 3147 3146 3145 3144 3143 3142 3142
3131 3133 3134 3135 3136 3137 3138 3139 3139 3139 3140 3141 3142 3143 3143 3144 3145 3145 3145 3146 3146 3146 3146 3146 3146 3146 3146 3145 3146 3146 3145 3145 3144 3144 3144 3145 3146 3146 3146 3146 3147 3146 3144 3143 3144 3145 3147 3147 3146 3144 3144 3144 3145 3145 3145 3146 3146 3147 3147 3146 3144 3143 3143 3144 3144 3143 3143 3143 3142 3141 3140 3139 3139 3138
3127 3128 3129 3130 3131 3131 3132 3133 3133 3133 3134 3136 3137 3138 3138 3138 3139 3139 3140 3139 3139 3140 3140 3140 3140 3140 3140 3140 3140 3140 3140 3140 3139 3138 3138 3139 3140 3141 3141 3140 3141 3141 3140 3140 3141 3142 3142 3142 3141 3139 3139 3140 3139 3139 3140 3141 3142 3142 3142 3141 3139 3139 3139 3139 3139 3139 3139 3138 3137 3136 3136 3135 3134 3134
3122 3123 3124 3124 3125 3125 3126 3127 3127 3127 3128 3130 3131 3132 3132 3132 3133 3133 3134 3134 3134 3134 3134 3134 3135 3135 3135 3135 3135 3134 3134 3134 3134 3133 3132 3133 3134 3135 3135 3135 3135 3135 3135 3136 3138 3138 3137 3137 3137 3136 3135 3135 3134 3135 3137 3138 3138 3137 3136 3135 3134 3134 3134 3134 3134 3134 3134 3134 3133 3132 3131 3130 3129 3129
3117 3117 3118 3119 3119 3120 3120 3121 3121 3122 3123 3124 3125 3126 3127 3126 3126 3127 3127 3128 3127 3127 3127 3128 3128 3128 3129 3129 3129 3128 3128 3128 3127 3126 3126 3126 3127 3129 3130 3130 3130 3128 3128 3129 3131 3131 3130 3131 3131 3131 3130 3129 3129 3130 3132 3134 3133 3132 3131 3130 3129 3129 3130 3130 3129 3129 3129 3128 3127 3126 3125 3125 3124 3123
3111 3112 3113 3113 3114 3114 3115 3116 3116 3116 3117 3118 3120 3121 3121 3121 3121 3121 3121 3121 3121 3121 3121 3121 3121 3121 3122 3122 3122 3121 3121 3121 3120 3120 3120 3120 3121 3122 3123 3123 3123 3124 3123 3124 3124 3124 3124 3125 3125 3125 3125 3124 3123 3124 3126 3126 3125 3125 3125 3124 3124 3124 3124 3124 3124 3123 3123 3122 3122 3121 3120 3119 3118 3117